Location: Eppenbrunn
(49.1158°N, 7.5601°E)
Time: 00:45:32
(UTC+00:00)

Cosmos 2366 rocket - Pass Details

Date: 09 April 2020
Orbit: 956 x 996 km, 82.9° (Epoch: 03 June)

Event Time Altitude Azimuth Distance (km) Brightness Sun altitude
Rises 19:35:17 0° 353° (N) 3,648 7.5 -13.3°
Reaches altitude 10° 19:37:52 10° 359° (N) 2,699 6.7 -13.6°
Maximum altitude 19:43:52 51° 75° (ENE) 1,196 4.2 -14.5°
Enters shadow 19:48:08 19° 144° (SE) 2,104 5.2 -15.1°
